| time (UTC) | temp F | wind direction | speed knots | gust knots | rain 1hr in | rain 24hr in | rain mn in | humidity % | barometer mb |
| 20260506073111 | 66 | 0.0 | 0.0 | 0.00 | 0.14 | 0.00 | 44 | 1008.9 | |
| 20260506072025 | 66 | 0.0 | 0.0 | 0.00 | 0.14 | 0.00 | 44 | 1008.9 | |
| 20260506071027 | 66 | 0.0 | 0.0 | 0.00 | 0.14 | 0.00 | 42 | 1008.8 | |
| 20260506062025 | 68 | 0.0 | 0.0 | 0.00 | 0.19 | 0.17 | 42 | 1008.5 | |
| 20260506061026 | 68 | 0.0 | 0.0 | 0.00 | 0.19 | 0.17 | 43 | 1008.5 | |
| 20260506051027 | 69 | 0.0 | 0.0 | 0.00 | 0.22 | 0.17 | 41 | 1008.3 | |
| 20260506045025 | 70 | 0.0 | 0.0 | 0.00 | 0.22 | 0.17 | 39 | 1007.8 | |
| 20260506044046 | 71 | 248 | 0.0 | 0.0 | 0.00 | 0.25 | 0.17 | 38 | 1007.7 |
| 20260506043024 | 71 | 292 | 0.0 | 0.0 | 0.00 | 0.25 | 0.17 | 38 | 1007.6 |
| 20260506042024 | 71 | 283 | 0.9 | 0.9 | 0.00 | 0.25 | 0.17 | 38 | 1007.5 |
| 20260506041026 | 71 | 284 | 0.9 | 0.9 | 0.00 | 0.25 | 0.17 | 40 | 1007.3 |
| 20260506040025 | 71 | 289 | 0.9 | 0.9 | 0.00 | 0.28 | 0.17 | 39 | 1007.1 |
| 20260506035020 | 72 | 272 | 1.7 | 1.7 | 0.00 | 0.28 | 0.17 | 39 | 1006.9 |
| 20260506034024 | 72 | 272 | 0.9 | 0.9 | 0.00 | 0.28 | 0.17 | 39 | 1006.8 |
| 20260506033025 | 72 | 250 | 0.9 | 1.7 | 0.00 | 0.28 | 0.17 | 38 | 1006.6 |
| 20260506032028 | 72 | 242 | 0.9 | 0.9 | 0.00 | 0.28 | 0.17 | 36 | 1006.3 |
| 20260506031024 | 72 | 241 | 0.9 | 0.9 | 0.00 | 0.28 | 0.17 | 36 | 1006.1 |
| 20260506030026 | 72 | 245 | 0.9 | 0.9 | 0.00 | 0.28 | 0.17 | 35 | 1006.1 |
| 20260506025044 | 73 | 242 | 0.9 | 0.9 | 0.00 | 0.28 | 0.17 | 35 | 1006.0 |
| 20260506024024 | 73 | 251 | 0.9 | 0.9 | 0.00 | 0.28 | 0.17 | 34 | 1005.9 |
| 20260506023024 | 74 | 258 | 0.9 | 0.9 | 0.00 | 0.28 | 0.17 | 34 | 1005.7 |
| 20260506022046 | 74 | 262 | 0.9 | 0.9 | 0.00 | 0.28 | 0.17 | 35 | 1005.6 |
| 20260506021024 | 74 | 259 | 1.7 | 1.7 | 0.00 | 0.28 | 0.17 | 32 | 1005.4 |
| 20260506020024 | 74 | 254 | 0.9 | 0.9 | 0.00 | 0.30 | 0.17 | 32 | 1005.1 |
| 20260506015024 | 74 | 272 | 1.7 | 1.7 | 0.00 | 0.30 | 0.17 | 31 | 1005.0 |
| 20260506014020 | 74 | 254 | 1.7 | 2.6 | 0.00 | 0.30 | 0.17 | 31 | 1005.0 |
| 20260506013024 | 75 | 235 | 2.6 | 3.5 | 0.00 | 0.30 | 0.17 | 31 | 1004.9 |
| 20260506012020 | 75 | 257 | 1.7 | 1.7 | 0.00 | 0.30 | 0.17 | 31 | 1004.8 |
| 20260506011026 | 75 | 273 | 1.7 | 2.6 | 0.00 | 0.30 | 0.17 | 31 | 1004.6 |
| 20260506010024 | 76 | 259 | 2.6 | 2.6 | 0.00 | 0.30 | 0.17 | 31 | 1004.5 |
| 20260506005024 | 76 | 275 | 3.5 | 4.3 | 0.00 | 0.30 | 0.17 | 30 | 1004.4 |
| 20260506004043 | 76 | 228 | 3.5 | 140.8 | 0.00 | 0.30 | 0.17 | 30 | 1004.3 |
| 20260506003043 | 76 | 264 | 2.6 | 3.5 | 0.00 | 0.30 | 0.17 | 30 | 1004.3 |
| 20260506002024 | 77 | 234 | 3.5 | 3.5 | 0.00 | 0.30 | 0.17 | 30 | 1004.2 |
| 20260506001022 | 77 | 231 | 2.6 | 3.5 | 0.00 | 0.30 | 0.17 | 31 | 1004.1 |
| 20260506000023 | 77 | 241 | 2.6 | 2.6 | 0.00 | 0.30 | 0.17 | 31 | 1004.0 |
| 20260505235025 | 76 | 243 | 2.6 | 2.6 | 0.00 | 0.30 | 0.17 | 31 | 1004.0 |
| 20260505234023 | 76 | 274 | 3.5 | 3.5 | 0.00 | 0.30 | 0.17 | 31 | 1003.8 |
| 20260505233143 | 76 | 230 | 3.5 | 3.5 | 0.00 | 0.30 | 0.17 | 31 | 1003.8 |
| 20260505232026 | 76 | 230 | 0.9 | 0.9 | 0.00 | 0.30 | 0.17 | 32 | 1003.9 |
| 20260505231023 | 76 | 228 | 2.6 | 2.6 | 0.00 | 0.30 | 0.17 | 32 | 1004.0 |
| 20260505230025 | 76 | 226 | 2.6 | 2.6 | 0.00 | 0.30 | 0.17 | 32 | 1004.1 |
| 20260505225019 | 77 | 227 | 1.7 | 2.6 | 0.00 | 0.30 | 0.17 | 33 | 1004.1 |
| 20260505224022 | 76 | 320 | 1.7 | 2.6 | 0.00 | 0.30 | 0.17 | 33 | 1004.2 |
| 20260505223044 | 77 | 229 | 2.6 | 2.6 | 0.00 | 0.30 | 0.17 | 33 | 1004.3 |
| 20260505222023 | 76 | 239 | 3.5 | 3.5 | 0.00 | 0.30 | 0.17 | 33 | 1004.4 |
| 20260505221023 | 77 | 193 | 1.7 | 1.7 | 0.00 | 0.30 | 0.17 | 35 | 1004.5 |
| 20260505220023 | 77 | 254 | 2.6 | 2.6 | 0.00 | 0.30 | 0.17 | 36 | 1004.6 |
| 20260505215023 | 77 | 224 | 0.9 | 1.7 | 0.00 | 0.30 | 0.17 | 36 | 1004.6 |
| 20260505214022 | 77 | 220 | 1.7 | 2.6 | 0.00 | 0.30 | 0.17 | 37 | 1004.9 |
| 20260505213026 | 77 | 222 | 2.6 | 3.5 | 0.00 | 0.30 | 0.17 | 39 | 1004.9 |
| 20260505212022 | 77 | 235 | 3.5 | 140.8 | 0.00 | 0.30 | 0.17 | 39 | 1005.0 |
| 20260505211022 | 76 | 280 | 2.6 | 3.5 | 0.00 | 0.30 | 0.17 | 38 | 1005.1 |
| 20260505210022 | 76 | 220 | 2.6 | 139.9 | 0.00 | 0.30 | 0.17 | 37 | 1005.2 |
| 20260505205026 | 76 | 230 | 2.6 | 139.9 | 0.00 | 0.30 | 0.17 | 37 | 1005.2 |
| 20260505204026 | 76 | 209 | 3.5 | 3.5 | 0.00 | 0.30 | 0.17 | 39 | 1005.2 |
| 20260505203022 | 76 | 245 | 3.5 | 3.5 | 0.00 | 0.30 | 0.17 | 40 | 1005.2 |
| 20260505202042 | 76 | 244 | 3.5 | 140.8 | 0.00 | 0.30 | 0.17 | 40 | 1005.4 |
| 20260505201024 | 75 | 233 | 3.5 | 3.5 | 0.00 | 0.30 | 0.17 | 43 | 1005.4 |
| 20260505200042 | 75 | 247 | 2.6 | 2.6 | 0.00 | 0.30 | 0.17 | 47 | 1005.6 |
| 20260505195022 | 75 | 252 | 3.5 | 3.5 | 0.00 | 0.30 | 0.17 | 47 | 1005.8 |
| 20260505194026 | 74 | 198 | 4.3 | 139.9 | 0.00 | 0.30 | 0.17 | 46 | 1005.7 |
| 20260505193022 | 73 | 252 | 1.7 | 1.7 | 0.00 | 0.30 | 0.17 | 51 | 1005.5 |
| 20260505192021 | 73 | 3 | 0.0 | 0.9 | 0.00 | 0.30 | 0.17 | 52 | 1005.8 |
| 20260505191021 | 72 | 269 | 0.9 | 0.9 | 0.00 | 0.30 | 0.17 | 52 | 1006.1 |
| 20260505190021 | 72 | 175 | 0.0 | 0.9 | 0.00 | 0.30 | 0.17 | 51 | 1006.1 |
| 20260505185027 | 72 | 134 | 0.9 | 0.9 | 0.00 | 0.30 | 0.17 | 52 | 1006.3 |
| 20260505184025 | 73 | 26 | 0.9 | 0.9 | 0.00 | 0.30 | 0.17 | 53 | 1006.4 |
| 20260505183042 | 72 | 234 | 0.9 | 0.9 | 0.00 | 0.30 | 0.17 | 53 | 1006.6 |
| 20260505182021 | 72 | 179 | 0.9 | 0.9 | 0.00 | 0.30 | 0.17 | 54 | 1006.7 |
| 20260505181021 | 71 | 158 | 0.9 | 1.7 | 0.00 | 0.30 | 0.17 | 55 | 1006.8 |
| 20260505180027 | 70 | 236 | 1.7 | 1.7 | 0.00 | 0.30 | 0.17 | 56 | 1006.8 |
| 20260505175026 | 70 | 0.0 | 0.0 | 0.00 | 0.30 | 0.17 | 57 | 1006.9 | |
| 20260505174023 | 70 | 13 | 0.0 | 0.0 | 0.00 | 0.30 | 0.17 | 57 | |
| 20260505173021 | 69 | 248 | 0.0 | 0.0 | 0.00 | 0.30 | 0.17 | 57 | |
| 20260505172021 | 69 | 233 | 0.0 | 0.0 | 0.00 | 0.30 | 0.17 | 57 | 1007.0 |
| 20260505171021 | 70 | 242 | 0.9 | 0.9 | 0.00 | 0.30 | 0.17 | 58 | 1007.1 |
| 20260505170029 | 70 | 203 | 0.0 | 0.0 | 0.00 | 0.30 | 0.17 | 58 | 1006.9 |
| 20260505165021 | 70 | 293 | 0.0 | 0.0 | 0.00 | 0.30 | 0.17 | 58 | 1007.0 |
| 20260505163024 | 68 | 0.0 | 0.0 | 0.00 | 0.30 | 0.17 | 57 | 1007.0 | |
| 20260505162041 | 68 | 241 | 0.0 | 0.0 | 0.00 | 0.30 | 0.17 | 57 | 1007.1 |
| 20260505161020 | 67 | 239 | 0.9 | 0.9 | 0.00 | 0.30 | 0.17 | 57 | 1007.1 |
| 20260505153020 | 66 | 218 | 0.0 | 0.9 | 0.00 | 0.30 | 0.17 | 55 | 1006.9 |
| 20260505152020 | 66 | 0.0 | 0.0 | 0.00 | 0.30 | 0.17 | 54 | 1006.9 | |
| 20260505151020 | 65 | 256 | 0.0 | 0.0 | 0.00 | 0.30 | 0.17 | 54 | 1006.9 |
| 20260505125022 | 63 | 0.0 | 0.0 | 0.00 | 0.30 | 0.17 | 56 | 1005.8 | |
| 20260505124020 | 63 | 0.0 | 0.0 | 0.00 | 0.30 | 0.17 | 56 | 1005.7 | |
| 20260505123021 | 63 | 0.0 | 0.0 | 0.03 | 0.30 | 0.17 | 56 | 1005.6 | |
| 20260505122019 | 63 | 293 | 0.0 | 0.0 | 0.03 | 0.30 | 0.17 | 55 | 1005.7 |
| 20260505121019 | 63 | 248 | 0.0 | 0.0 | 0.03 | 0.30 | 0.17 | 56 | 1005.5 |
| 20260505120020 | 62 | 165 | 0.0 | 0.9 | 0.03 | 0.30 | 0.17 | 56 | 1005.4 |
| 20260505115039 | 62 | 187 | 0.0 | 0.9 | 0.03 | 0.30 | 0.17 | 55 | 1005.2 |
| 20260505114019 | 62 | 219 | 0.9 | 0.9 | 0.03 | 0.30 | 0.17 | 55 | 1005.3 |
| 20260505113039 | 62 | 196 | 0.9 | 0.9 | 0.00 | 0.28 | 0.14 | 55 | 1005.6 |
| 20260505112020 | 62 | 182 | 0.9 | 0.9 | 0.00 | 0.28 | 0.14 | 55 | 1005.5 |
| 20260505111041 | 62 | 196 | 0.9 | 0.9 | 0.03 | 0.28 | 0.14 | 55 | 1005.5 |
| 20260505102018 | 62 | 149 | 0.9 | 1.7 | 0.03 | 0.28 | 0.14 | 55 | 1006.3 |
| 20260505101021 | 62 | 199 | 1.7 | 1.7 | 0.00 | 0.25 | 0.11 | 55 | 1006.7 |
| 20260505100039 | 62 | 195 | 1.7 | 1.7 | 0.00 | 0.25 | 0.11 | 55 | 1006.5 |
| 20260505095031 | 62 | 176 | 1.7 | 2.6 | 0.00 | 0.25 | 0.11 | 55 | 1006.5 |
| 20260505094027 | 63 | 193 | 1.7 | 2.6 | 0.00 | 0.25 | 0.11 | 55 | 1006.4 |
| 20260505093045 | 63 | 208 | 1.7 | 1.7 | 0.00 | 0.25 | 0.11 | 56 | 1006.6 |
| 20260505092024 | 63 | 185 | 1.7 | 1.7 | 0.03 | 0.25 | 0.11 | 56 | 1006.7 |
| 20260505091021 | 63 | 164 | 1.7 | 1.7 | 0.03 | 0.25 | 0.11 | 56 | 1006.8 |
| 20260505090019 | 63 | 197 | 1.7 | 1.7 | 0.03 | 0.25 | 0.11 | 56 | 1006.7 |
| 20260505085021 | 63 | 118 | 1.7 | 1.7 | 0.06 | 0.25 | 0.11 | 56 | 1007.0 |
| 20260505084027 | 63 | 143 | 1.7 | 1.7 | 0.06 | 0.25 | 0.11 | 56 | 1007.3 |
| 20260505083034 | 63 | 160 | 0.9 | 0.9 | 0.08 | 0.25 | 0.11 | 56 | 1007.9 |
| 20260505082040 | 63 | 71 | 0.9 | 0.9 | 0.06 | 0.22 | 0.08 | 56 | 1008.2 |
| 20260505081030 | 64 | 167 | 0.9 | 0.9 | 0.06 | 0.22 | 0.08 | 56 | 1008.5 |
| 20260505080051 | 64 | 134 | 0.9 | 0.9 | 0.08 | 0.22 | 0.08 | 57 | 1008.8 |